Weather History for Bradford, PA

Change the Weather History Date:

Thursday, February 9, 2012

  Actual Average Record
Temperature  
Mean Temperature 26 °F 23 °F  
Max Temperature 33 °F 31 °F 59 °F (2001)
Min Temperature 19 °F 14 °F -12 °F (1963)
Degree Days  
Heating Degree Days 39 37  
Month to date heating degree days 335  
Since 1 July heating degree days 4746  
Cooling Degree Days 0 0  
Month to date cooling degree days 0  
Year to date cooling degree days 0  
Moisture  
Dew Point 17 °F    
Average Humidity 74    
Maximum Humidity 93    
Minimum Humidity 52    
Precipitation  
Precipitation 0.00 in 0.09 in 0.48 in (1999)
Month to date precipitation 0.76  
Year to date precipitation 4.05  
Sea Level Pressure  
Sea Level Pressure 30.15 in    
Wind  
Wind Speed 7 mph (West)    
Max Wind Speed 9 mph    
Max Gust Speed -    
Visibility 10 miles    
Events      
T = Trace of Precipitation, MM = Missing Value Source: NWS Daily Summary

Daily Weather History Graph

Daily Weather History Graph

Search for Another Location

Airport:

Trip Planner

Search our weather history database for the weather conditions in past years. The results will help you decide how hot, cold, wet, or windy it might be!

Date:

Astronomy

Feb. 09, 2012 Rise Set
Actual Time 7:18 AM EST 5:39 PM EST
Civil Twilight 6:49 AM EST 6:08 PM EST
Nautical Twilight 6:16 AM EST 6:41 PM EST
Astronomical Twilight 5:44 AM EST 7:13 PM EST
Moon 8:09 PM EST (2/9) 7:51 AM EST (2/9)
Length of Visible Light 11h 18m
Length of Day
10h 20m
Waning Gibbous, 96% of the Moon is Illuminated
Feb 9
Waning Gibbous
Feb 14
Last Quarter
Feb 21
New
Feb 29
First Quarter
Mar 8
Full

Hourly Weather History & Observations

Time (EST) Temp. Windchill Dew Point Humidity Pressure Visibility Wind Dir Wind Speed Gust Speed Precip Events Conditions
12:53 AM 19.9 °F 11.1 °F 15.1 °F 81% 30.17 in 10.0 mi West 6.9 mph - N/A   Overcast
1:02 AM 19.4 °F 10.4 °F 15.8 °F 86% 30.08 in 10.0 mi West 6.9 mph - N/A   Overcast
1:53 AM 19.0 °F 10.0 °F 15.1 °F 85% 30.17 in 10.0 mi West 6.9 mph - N/A   Mostly Cloudy
2:41 AM 19.4 °F 9.5 °F 17.6 °F 93% 30.08 in 10.0 mi West 8.1 mph - N/A   Overcast
2:53 AM 19.9 °F 9.3 °F 17.1 °F 89% 30.16 in 10.0 mi West 9.2 mph - N/A   Overcast
3:53 AM 21.0 °F 10.6 °F 17.1 °F 85% 30.15 in 10.0 mi West 9.2 mph - N/A   Overcast
4:53 AM 21.0 °F 12.4 °F 18.0 °F 88% 30.15 in 10.0 mi West 6.9 mph - N/A   Overcast
5:53 AM 19.9 °F 12.1 °F 17.1 °F 89% 30.17 in 10.0 mi West 5.8 mph - N/A   Overcast
6:53 AM 19.9 °F 10.1 °F 17.1 °F 89% 30.18 in 9.0 mi West 8.1 mph - N/A   Overcast
7:53 AM 19.9 °F 12.1 °F 17.1 °F 89% 30.20 in 7.0 mi West 5.8 mph - N/A   Overcast
8:53 AM 19.9 °F 12.1 °F 17.1 °F 89% 30.22 in 8.0 mi WSW 5.8 mph - N/A   Overcast
9:53 AM 21.9 °F 13.4 °F 17.1 °F 82% 30.22 in 10.0 mi West 6.9 mph - N/A   Overcast
10:35 AM 23.0 °F 15.8 °F 17.6 °F 80% 30.13 in 10.0 mi Variable 5.8 mph - N/A   Scattered Clouds
10:53 AM 24.1 °F 15.2 °F 18.0 °F 77% 30.22 in 10.0 mi SW 8.1 mph - N/A   Mostly Cloudy
11:10 AM 24.8 °F 15.3 °F 17.6 °F 74% 30.14 in 10.0 mi West 9.2 mph - N/A   Scattered Clouds
11:53 AM 27.0 °F 19.5 °F 18.0 °F 69% 30.20 in 10.0 mi WSW 6.9 mph - N/A   Clear
12:53 PM 30.0 °F 23.2 °F 17.1 °F 59% 30.17 in 10.0 mi Variable 6.9 mph - N/A   Clear
1:53 PM 32.0 °F 24.2 °F 17.1 °F 54% 30.15 in 10.0 mi West 9.2 mph - N/A   Clear
2:53 PM 33.1 °F 26.1 °F 17.1 °F 52% 30.14 in 10.0 mi WSW 8.1 mph - N/A   Clear
3:53 PM 33.1 °F 27.7 °F 18.0 °F 54% 30.14 in 10.0 mi WSW 5.8 mph - N/A   Clear
4:53 PM 32.0 °F 26.4 °F 18.0 °F 56% 30.14 in 10.0 mi Variable 5.8 mph - N/A   Clear
5:53 PM 30.9 °F 24.3 °F 16.0 °F 54% 30.14 in 10.0 mi SW 6.9 mph - N/A   Clear
6:53 PM 28.9 °F 23.9 °F 17.1 °F 61% 30.15 in 10.0 mi Variable 4.6 mph - N/A   Clear
7:53 PM 28.0 °F 24.2 °F 16.0 °F 61% 30.14 in 10.0 mi SSW 3.5 mph - N/A   Clear
8:53 PM 27.0 °F 20.5 °F 15.1 °F 61% 30.15 in 10.0 mi Variable 5.8 mph - N/A   Clear
9:53 PM 26.1 °F 17.6 °F 15.1 °F 63% 30.15 in 10.0 mi SW 8.1 mph - N/A   Clear
10:53 PM 25.0 °F 17.1 °F 15.1 °F 66% 30.14 in 10.0 mi Variable 6.9 mph - N/A   Clear
11:53 PM 24.1 °F 16.0 °F 16.0 °F 71% 30.14 in 10.0 mi Variable 6.9 mph - N/A   Clear